Palermo current weather conditions

sailwx.info

Wind from 330 at 6 knots

Air temperature 27.0° C
Visibility: greater than 5.4 NM
Dewpoint 24.0° C

Last reported at 2014-Aug-29 10:50 UTC.
Time now 2014-Aug-29 12:20 UTC

Location: N 38°10' E 013°05'.
View on Google Maps.

See reports from other nearby stations

  
Tides and Currents Weather Stations Pressure Air Temp Water Temp Dewpoint Dewpoint Depression Visibility Wind Speed Wind Dir Waves Ship Positions
date/time (UTC)wind fromknots sea level pressurealtimeterstation pressurevisibilityair tempwater tempwave heightnotes
2014-Aug-29 11:50 340 6 29.0
2014-Aug-29 11:20 340 7 5.428.0
2014-Aug-29 10:50 330 6 5.427.0
2014-Aug-29 10:20 340 7 5.428.0
2014-Aug-29 09:50 350 7 5.429.0
2014-Aug-29 09:20 360 7 5.428.0
2014-Aug-29 08:50 360 7 5.428.0
2014-Aug-29 08:20 360 8 5.428.0
2014-Aug-29 07:50 010 8 5.427.0
2014-Aug-29 07:20 010 9 5.427.0
2014-Aug-29 06:50 020 10 5.427.0
2014-Aug-29 06:20 040 9 5.426.0
2014-Aug-29 05:50 030 10 5.426.0
2014-Aug-29 05:20 010 10 5.426.0
2014-Aug-29 04:50 010 10 5.425.0
2014-Aug-29 04:20 020 9 5.425.0
2014-Aug-29 03:50 040 6 25.0
2014-Aug-29 03:20 030 6 25.0
2014-Aug-29 02:50 050 5 24.0
2014-Aug-29 02:20 040 6 25.0
2014-Aug-29 01:50 040 6 25.0
2014-Aug-29 01:20 050 6 25.0
2014-Aug-29 00:50 060 7 25.0
2014-Aug-29 00:20 060 7 25.0
2014-Aug-28 23:50 040 9 26.0
2014-Aug-28 23:20 040 10 26.0
2014-Aug-28 22:50 040 10 26.0
2014-Aug-28 22:20 040 11 26.0
2014-Aug-28 21:50 060 9 26.0
2014-Aug-28 21:20 060 10 26.0
2014-Aug-28 20:50 040 12 27.0
2014-Aug-28 20:20 040 11 27.0
2014-Aug-28 19:50 040 12 27.0
2014-Aug-28 19:20 040 12 27.0
2014-Aug-28 18:50 030 13 27.0
2014-Aug-28 18:20 040 13 27.0
2014-Aug-28 17:50 040 14 27.0
2014-Aug-28 17:20 040 12 28.0
2014-Aug-28 16:50 040 13 28.0
2014-Aug-28 16:20 040 12 28.0
2014-Aug-28 15:50 030 12 28.0
2014-Aug-28 15:20 040 13 29.0
2014-Aug-28 14:50 040 14 29.0
2014-Aug-28 14:20 040 14 29.0
2014-Aug-28 13:50 040 13 29.0
2014-Aug-28 13:20 040 11 29.0
2014-Aug-28 12:50 030 11 29.0
2014-Aug-28 12:20 030 13 29.0
2014-Aug-28 11:50 030 11 29.0
2014-Aug-28 11:20 020 9 29.0
2014-Aug-28 10:50 360 7 30.0
2014-Aug-28 10:20 330 7 29.0
2014-Aug-28 09:50 330 7 29.0
2014-Aug-28 09:20 350 7 29.0
2014-Aug-28 08:50 020 7 28.0
2014-Aug-28 08:20 010 6 28.0
2014-Aug-28 07:50 340 2 29.0
2014-Aug-28 07:20 340 2 29.0
2014-Aug-28 06:50 190 2 28.0
2014-Aug-28 06:20 230 3 26.0
2014-Aug-28 05:50 200 3 26.0
2014-Aug-28 05:20 180 3 23.0
2014-Aug-28 04:50 180 3 22.0
2014-Aug-28 04:20 150 1 23.0
2014-Aug-28 03:50 120 1 23.0
2014-Aug-28 03:20 150 2 23.0
2014-Aug-28 02:50 130 2 23.0
2014-Aug-28 02:20 160 1 23.0
2014-Aug-28 01:50 23.0
2014-Aug-28 01:20 050 1 24.0
2014-Aug-28 00:50 130 3 23.0
2014-Aug-28 00:20 160 1 23.0
2014-Aug-27 23:50 130 1 24.0
2014-Aug-27 23:20 130 2 24.0
2014-Aug-27 22:50 270 2 24.0
2014-Aug-27 22:20 150 2 24.0
2014-Aug-27 21:50 200 3 25.0
2014-Aug-27 21:20 200 3 25.0
2014-Aug-27 20:50 120 4 25.0
2014-Aug-27 20:20 070 5 25.0
2014-Aug-27 19:50 040 6 27.0
2014-Aug-27 19:20 050 7 26.0
2014-Aug-27 18:50 050 9 27.0
2014-Aug-27 18:20 060 10 27.0
2014-Aug-27 17:50 060 11 27.0
2014-Aug-27 17:20 050 11 28.0
2014-Aug-27 16:50 040 12 28.0
2014-Aug-27 16:20 040 12 28.0
2014-Aug-27 15:50 040 10 29.0
2014-Aug-27 15:20 030 10 29.0
2014-Aug-27 14:50 040 10 29.0
2014-Aug-27 14:20 040 10 30.0
2014-Aug-27 13:50 030 10 30.0
2014-Aug-27 13:20 030 10 30.0
2014-Aug-27 12:50 030 9 30.0
2014-Aug-27 12:20 030 10 30.0